Oakey, Australia

4:38 PM AEST on April 29, 2017 (GMT +1000)
Oakey (Military)

Weather History for YBOK - December, 2013

Change the Weather History Date:

Thursday, December 19, 2013

  Actual Average Record
Temperature  
Mean Temperature 68 °F -  
Max Temperature 81 °F - - ()
Min Temperature 56 °F - - ()
Cooling Degree Days 4    
Growing Degree Days 18 (Base 50)    
Moisture  
Dew Point 54 °F    
Average Humidity 58    
Maximum Humidity 94    
Minimum Humidity 25    
Precipitation  
Precipitation 0.00 in - - ()
Sea Level Pressure  
Sea Level Pressure 30.14 in    
Wind  
Wind Speed 10 mph ()    
Max Wind Speed 20 mph    
Max Gust Speed -    
Visibility 6.2 miles    
Events      
T = Trace of Precipitation, MM = Missing Value Source: Averaged Metar Reports

Daily Weather History Graph

Daily Weather History Graph

Search for Another Location

Airport or City:

Trip Planner

Search our weather history database for the weather conditions in past years. The results will help you decide how hot, cold, wet, or windy it might be!

Date:

Astronomy

Dec. 19, 2013 Rise Set
Actual Time 4:53 AM AEST 6:46 PM AEST
Civil Twilight 4:27 AM AEST 7:12 PM AEST
Nautical Twilight 3:55 AM AEST 7:44 PM AEST
Astronomical Twilight 3:21 AM AEST 8:18 PM AEST
Moon 7:59 PM AEST (12/19) 6:17 AM AEST (12/19)
Length of Visible Light 14h 45m
Length of Day
13h 52m
Full, 97% of the Moon is Illuminated
Dec 19
Full
Dec 25
Last Quarter
Jan 1
New
Jan 8
First Quarter
Jan 16
Full

Hourly Weather History & Observations

Time (AEST) Temp. Dew Point Humidity Pressure Visibility Wind Dir Wind Speed Gust Speed Precip Events Conditions
12:00 AM 60 °F 54 °F 76% 30.14 in - ESE 9.2 mph - -  
12:00 AM 60.8 °F 55.4 °F 82% 30.18 in 6.2 mi ESE 9.2 mph - N/A   Unknown
1:00 AM 57 °F 53 °F 83% 30.12 in - ESE 5.8 mph - -  
1:00 AM 57.2 °F 53.6 °F 88% 30.18 in 6.2 mi ESE 5.8 mph - N/A   Unknown
2:00 AM 59.0 °F 55.4 °F 88% 30.15 in 6.2 mi East 6.9 mph - N/A   Unknown
3:00 AM 58 °F 54 °F 84% 30.10 in - East 6.9 mph - -  
3:00 AM 57.2 °F 55.4 °F 94% 30.15 in 6.2 mi East 6.9 mph - N/A   Unknown
4:00 AM 58 °F 55 °F 88% 30.10 in - ESE 3.5 mph - -  
4:00 AM 59.0 °F 55.4 °F 88% 30.15 in 6.2 mi ESE 3.5 mph - N/A   Scattered Clouds
5:00 AM 57.2 °F 55.4 °F 94% 30.15 in 6.2 mi East 6.9 mph - N/A   Scattered Clouds
6:00 AM 63 °F 56 °F 72% 30.13 in - ESE 8.1 mph - -  
6:00 AM 62.6 °F 57.2 °F 82% 30.18 in 6.2 mi ESE 8.1 mph - N/A   Unknown
7:00 AM 68 °F 55 °F 55% 30.14 in - ESE 17.3 mph - -  
7:00 AM 68.0 °F 55.4 °F 64% 30.18 in 6.2 mi ESE 17.3 mph - N/A   Unknown
8:00 AM 69.8 °F 55.4 °F 60% 30.21 in 6.2 mi ENE 19.6 mph - N/A   Mostly Cloudy
9:00 AM 71 °F 54 °F 44% 30.16 in - East 18.4 mph - -  
9:00 AM 71.6 °F 53.6 °F 53% 30.21 in 6.2 mi East 18.4 mph - N/A   Mostly Cloudy
10:00 AM 73 °F 53 °F 39% 30.15 in - East 18.4 mph - -  
10:00 AM 73.4 °F 53.6 °F 50% 30.21 in 6.2 mi East 18.4 mph - N/A   Mostly Cloudy
11:00 AM 77.0 °F 53.6 °F 44% 30.18 in 6.2 mi East 18.4 mph - N/A   Scattered Clouds
12:00 PM 76 °F 54 °F 37% 30.13 in - ENE 15.0 mph - -  
12:00 PM 77.0 °F 55.4 °F 47% 30.18 in 6.2 mi ENE 15.0 mph - N/A   Mostly Cloudy
1:00 PM 78 °F 53 °F 31% 30.10 in - ENE 15.0 mph - -  
1:00 PM 78.8 °F 53.6 °F 42% 30.15 in 6.2 mi ENE 15.0 mph - N/A   Mostly Cloudy
2:00 PM 78.8 °F 53.6 °F 42% 30.12 in 6.2 mi ENE 17.3 mph - N/A   Scattered Clouds
3:00 PM 81 °F 51 °F 25% 30.05 in - East 17.3 mph - -  
3:00 PM 80.6 °F 51.8 °F 37% 30.09 in 6.2 mi East 17.3 mph - N/A   Scattered Clouds
4:00 PM 81 °F 52 °F 26% 30.05 in - ENE 15.0 mph - -  
4:00 PM 80.6 °F 51.8 °F 37% 30.09 in 6.2 mi ENE 15.0 mph - N/A   Unknown
5:00 PM 78.8 °F 50.0 °F 36% 30.12 in 6.2 mi East 16.1 mph - N/A   Unknown
6:00 PM 76 °F 48 °F 27% 30.09 in - East 16.1 mph - -  
6:00 PM 77.0 °F 48.2 °F 36% 30.12 in 6.2 mi East 16.1 mph - N/A   Unknown
7:00 PM 72 °F 51 °F 37% 30.10 in - ENE 13.8 mph - -  
7:00 PM 73.4 °F 51.8 °F 47% 30.15 in 6.2 mi ENE 13.8 mph - N/A   Unknown
8:00 PM 69.8 °F 53.6 °F 56% 30.15 in 6.2 mi ENE 15.0 mph - N/A   Unknown
9:00 PM 67 °F 54 °F 53% 30.13 in - ENE 11.5 mph - -  
9:00 PM 66.2 °F 53.6 °F 64% 30.18 in 6.2 mi ENE 11.5 mph - N/A   Unknown
10:00 PM 65 °F 55 °F 62% 30.14 in - ENE 13.8 mph - -  
10:00 PM 66.2 °F 55.4 °F 68% 30.18 in 6.2 mi ENE 13.8 mph - N/A   Unknown
11:00 PM 60.8 °F 53.6 °F 77% 30.18 in 6.2 mi East 8.1 mph - N/A   Unknown